BREEZE-KM R/B, 39486

Orbit data source: Space-Track

BREEZE-KM R/B, 39486 is space debris in LEO originally from a launch on Wed, 25 Dec 2013 UTC launched from the Plesetsk Missile And Space Complex (PKMTR). Debris objects in space refer to the collection of defunct objects orbiting the Earth. Examples of debris include non-operational satellites, rocket bodies, and fragments generated from explosions, collisions, or faulty payload assembly.

Loading next visibility...
Identifier
39486, 2013-076D
Orbit
LEO
Country
Flag of CISCIS
Related business
Manufacturer
Khrunichev
Mission
Spacecraft
Bus & Motor
BRIZ, S5.92
Mass
2,370 kg wet, 2,370 kg dry
Launch date (UTC)
2013-12-25 (12 years ago)
Launch vehicle
Unknown
Launch site
Plesetsk Missile And Space Complex (PKMTR)
Object type
Payload
Rocket body
Debris
Shape & HBR
Hex Cyl + 1 Rod, 2.0 m
Radar Cross Section
10.190 m², Large (>1 m²)

Expand to show TLE details & history
Last TLE update: 8 hours ago

TLE from 8 hours ago
0 BREEZE-KM R/B
1 39486U 13076D   26112.13703463  .00000007  00000-0 -21101-4 0  9993
2 39486  82.4855 344.8567 0233627 133.5793 228.4967 12.82990307577069
Epoch: 2026-04-22T03:17Z
TLE epoch observation values (Epoch: 2026-04-22T03:17:19.792Z)
Latitude
-0.00008°
Longitude
85.32144°
Altitude
1,453.885 km
Speed
7.079 km/s
True Right ascension
22h 59m 25s
True Declination
0° 00' 00"
Sunlit
Object was in daylight at epoch
Visualization orbit readout
Latitude
Unknown
Longitude
Unknown
Altitude
Unknown
Speed
Unknown
Apparent Right ascension
Unknown
Apparent Declination
Unknown
Sunlit
N/A
Visualization observer readout
Local Sidereal Time
18:19:10
Azimuth
Unknown
Elevation
Unknown
Doppler factor
Unknown
Orbital elements
Apogee altitude
1,506.771 km
Perigee altitude
1,146.756 km
Semi-major axis
7,704.9 km
Eccentricity
0.02336
Inclination
82.4855°
RAAN
344.8567°
Arg. of periapsis
133.5793°
True anomaly
226.5302°
Mean anomaly
228.4967°
Eccentric anomaly
227.50964°
Mean motion
3.20917 °/min
Orbital period
112.18 mins
BSTAR
-0.000021101
Loading maneuver chart data...
Computing Atmospheric mass density...
Loading historical data...
Loading historical data...
Loading historical data...
Loading historical data...
Loading historical data...
Loading historical data...
Loading historical data...

Documentation

Showing up to 5 results
|